QPF
0.00 0.00 0.00 0.00 0.00 0.00 0.00 0.00 0.00 0.00 0.00 0.00 0.00 0.00 0.00 0.00 0.00 0.01 0.02 0.03 0.02 0.01 0.00 0.00 0.00 0.00 0.00 0.00 0.00 0.00 0.00 0.00 0.00 0.00 0.00 0.00 0.00 0.00 0.00 0.00 0.00 0.00 0.00
0.00 0.00 0.00 0.00 0.00 0.00 0.00 0.00 0.00 0.00 0.00 0.00 0.00 0.00 0.00 0.00 0.00 0.00 0.00 0.01 0.02 0.01 0.00 0.00 0.00 0.00 0.00 0.00 0.00 0.00 0.00 0.00 0.00 0.00 0.00 0.00 0.00 0.00 0.00 0.00 0.00 0.00 0.00
0.00 0.00 0.00 0.00 0.00 0.00 0.00 0.00 0.00 0.00 0.00 0.00 0.00 0.00 0.00 0.00 0.00 0.00 0.01 0.01 0.00 0.00 0.00 0.00 0.00 0.00 0.00 0.00 0.00 0.00 0.00 0.00 0.00 0.00 0.00 0.00 0.00 0.00 0.00 0.00 0.00 0.00 0.00
0.00 0.00 0.00 0.00 0.00 0.00 0.00 0.00 0.00 0.00 0.00 0.00 0.00 0.00 0.00 0.00 0.00 0.00 0.00 0.00 0.00 0.00 0.00 0.00 0.00 0.00 0.00 0.00 0.00 0.00 0.00 0.00 0.00 0.00 0.00 0.00 0.00 0.00 0.00 0.00 0.00 0.00 0.00
0.00 0.00 0.01 0.00 0.00 0.00 0.00 0.00 0.00 0.00 0.00 0.00 0.00 0.00 0.00 0.00 0.00 0.00 0.00 0.00 0.00 0.00 0.00 0.00 0.00 0.00 0.00 0.00 0.00 0.00 0.00 0.00 0.00 0.00 0.00 0.00 0.00 0.00 0.00 0.00 0.00 0.00 0.00
0.00 0.00 0.00 0.01 0.00 0.00 0.00 0.00 0.00 0.00 0.00 0.00 0.00 0.00 0.00 0.00 0.00 0.00 0.00 0.00 0.00 0.00 0.00 0.00 0.00 0.00 0.00 0.00 0.00 0.00 0.00 0.00 0.00 0.00 0.00 0.00 0.00 0.00 0.00 0.00 0.01 0.00 0.00
0.00 0.00 0.00 0.00 0.00 0.00 0.00 0.00 0.00 0.00 0.00 0.00 0.00 0.00 0.00 0.00 0.00 0.00 0.00 0.00 0.00 0.00 0.00 0.00 0.00 0.00 0.00 0.00 0.00 0.00 0.00 0.00 0.00 0.00 0.00 0.00 0.00 0.00 0.00 0.00 0.00 0.00 0.01
0.00 0.00 0.00 0.00 0.00 0.00 0.00 0.00 0.00 0.00 0.00 0.00 0.00 0.00 0.00 0.00 0.00 0.00 0.00 0.00 0.00 0.00 0.00 0.00 0.00 0.00 0.00 0.00 0.00 0.00 0.00 0.00 0.00 0.00 0.00 0.00 0.00 0.00 0.00 0.00 0.00 0.00 0.01
0.00 0.00 0.00 0.00 0.00 0.00 0.00 0.00 0.00 0.00 0.00 0.00 0.00 0.00 0.00 0.00 0.00 0.00 0.00 0.00 0.00 0.00 0.00 0.00 0.00 0.00 0.00 0.00 0.00 0.00 0.00 0.00 0.00 0.00 0.00 0.00 0.00 0.00 0.00 0.01 0.00 0.00 0.00
0.00 0.00 0.00 0.00 0.00 0.00 0.00 0.00 0.00 0.00 0.00 0.00 0.00 0.00 0.00 0.00 0.00 0.00 0.00 0.00 0.00 0.00 0.00 0.00 0.00 0.00 0.00 0.00 0.00 0.00 0.00 0.00 0.00 0.00 0.00 0.00 0.00 0.00 0.00 0.01 0.00 0.00 0.00
0.00 0.00 0.00 0.00 0.00 0.00 0.00 0.00 0.00 0.00 0.00 0.00 0.00 0.00 0.00 0.00 0.00 0.00 0.00 0.00 0.00 0.00 0.00 0.00 0.00 0.00 0.00 0.00 0.00 0.00 0.00 0.00 0.00 0.00 0.00 0.00 0.00 0.01 0.01 0.01 0.00 0.00 0.01
0.00 0.00 0.00 0.00 0.00 0.00 0.00 0.00 0.00 0.00 0.00 0.00 0.00 0.00 0.00 0.00 0.00 0.00 0.00 0.00 0.00 0.00 0.00 0.00 0.00 0.00 0.00 0.00 0.00 0.00 0.00 0.00 0.00 0.00 0.00 0.00 0.00 0.00 0.00 0.00 0.00 0.00 0.00
0.00 0.00 0.00 0.00 0.00 0.00 0.00 0.00 0.00 0.00 0.00 0.00 0.00 0.00 0.00 0.00 0.00 0.00 0.00 0.00 0.00 0.00 0.00 0.00 0.00 0.00 0.00 0.00 0.00 0.00 0.00 0.00 0.00 0.00 0.00 0.00 0.00 0.00 0.00 0.00 0.00 0.00 0.00
0.00 0.00 0.00 0.00 0.00 0.00 0.00 0.00 0.00 0.00 0.00 0.00 0.00 0.00 0.00 0.00 0.00 0.00 0.00 0.00 0.00 0.00 0.00 0.00 0.00 0.00 0.00 0.00 0.00 0.00 0.00 0.00 0.00 0.00 0.00 0.00 0.00 0.00 0.00 0.00 0.00 0.00 0.00
0.00 0.00 0.00 0.00 0.00 0.00 0.00 0.00 0.00 0.00 0.00 0.00 0.00 0.00 0.00 0.00 0.00 0.00 0.00 0.00 0.00 0.00 0.00 0.00 0.00 0.00 0.00 0.00 0.00 0.00 0.00 0.00 0.00 0.00 0.00 0.00 0.00 0.00 0.00 0.00 0.00 0.00 0.00
0.00 0.00 0.00 0.00 0.00 0.00 0.00 0.00 0.00 0.00 0.00 0.00 0.00 0.00 0.00 0.00 0.00 0.00 0.00 0.00 0.00 0.00 0.00 0.00 0.00 0.00 0.00 0.00 0.00 0.00 0.00 0.00 0.00 0.00 0.00 0.00 0.00 0.00 0.00 0.00 0.00 0.00 0.00
0.00 0.00 0.00 0.00 0.00 0.00 0.00 0.00 0.00 0.00 0.00 0.00 0.00 0.00 0.00 0.00 0.00 0.00 0.00 0.00 0.00 0.00 0.00 0.00 0.00 0.00 0.00 0.00 0.00 0.00 0.00 0.00 0.00 0.00 0.00 0.00 0.00 0.00 0.00 0.00 0.00 0.00 0.00
0.00 0.00 0.00 0.00 0.00 0.00 0.00 0.00 0.00 0.00 0.00 0.00 0.00 0.00 0.00 0.00 0.00 0.00 0.00 0.00 0.00 0.00 0.00 0.00 0.00 0.00 0.00 0.00 0.00 0.00 0.00 0.00 0.00 0.00 0.00 0.00 0.00 0.00 0.00 0.00 0.00 0.00 0.00
0.00 0.00 0.00 0.00 0.00 0.00 0.00 0.00 0.00 0.00 0.00 0.00 0.00 0.00 0.00 0.00 0.00 0.00 0.00 0.00 0.00 0.00 0.00 0.00 0.00 0.00 0.00 0.00 0.00 0.00 0.00 0.00 0.00 0.00 0.00 0.00 0.00 0.00 0.00 0.00 0.00 0.00 0.00
0.00 0.00 0.00 0.00 0.00 0.00 0.00 0.00 0.00 0.00 0.00 0.00 0.00 0.00 0.00 0.00 0.00 0.00 0.00 0.00 0.00 0.00 0.00 0.00 0.00 0.00 0.00 0.00 0.00 0.00 0.00 0.00 0.00 0.00 0.00 0.00 0.00 0.00 0.00 0.00 0.00 0.00 0.00
0.00 0.00 0.00 0.00 0.00 0.00 0.00 0.00 0.00 0.00 0.00 0.00 0.00 0.00 0.00 0.00 0.00 0.00 0.00 0.00 0.00 0.00 0.00 0.00 0.00 0.00 0.00 0.00 0.00 0.00 0.00 0.00 0.00 0.00 0.00 0.00 0.00 0.00 0.00 0.01 0.00 0.00 0.00
0.00 0.00 0.00 0.00 0.00 0.00 0.00 0.00 0.00 0.00 0.00 0.00 0.00 0.00 0.00 0.00 0.00 0.00 0.00 0.00 0.00 0.00 0.00 0.00 0.00 0.00 0.00 0.00 0.00 0.00 0.00 0.00 0.00 0.00 0.00 0.01 0.01 0.00 0.00 0.00 0.00 0.00 0.00
0.00 0.00 0.00 0.00 0.00 0.00 0.00 0.00 0.00 0.00 0.00 0.00 0.00 0.00 0.00 0.00 0.00 0.00 0.00 0.00 0.00 0.00 0.00 0.00 0.00 0.00 0.00 0.00 0.00 0.00 0.00 0.00 0.00 0.00 0.00 0.00 0.00 0.00 0.00 0.00 0.00 0.00 0.00
0.00 0.00 0.00 0.00 0.00 0.00 0.00 0.00 0.00 0.00 0.00 0.00 0.00 0.00 0.00 0.00 0.00 0.00 0.00 0.00 0.00 0.00 0.00 0.00 0.00 0.00 0.00 0.00 0.00 0.00 0.00 0.00 0.00 0.00 0.00 0.00 0.01 0.00 0.00 0.00 0.00 0.00 0.00
0.00 0.00 0.00 0.00 0.00 0.00 0.00 0.00 0.00 0.00 0.00 0.00 0.00 0.00 0.00 0.00 0.00 0.00 0.00 0.00 0.00 0.00 0.00 0.00 0.00 0.00 0.00 0.00 0.00 0.00 0.00 0.00 0.00 0.00 0.00 0.00 0.01 0.00 0.00 0.00 0.00 0.00 0.00
0.00 0.00 0.00 0.00 0.00 0.00 0.00 0.00 0.00 0.00 0.00 0.00 0.00 0.00 0.00 0.00 0.00 0.00 0.00 0.00 0.00 0.00 0.00 0.00 0.00 0.00 0.00 0.00 0.00 0.00 0.00 0.00 0.00 0.00 0.00 0.00 0.00 0.00 0.00 0.00 0.00 0.00 0.00
MSLP
1016.71 1016.53 1016.12 1015.74 1015.12 1014.53 1014.27 1013.82 1013.14 1012.24 1011.36 1010.55 1009.99 1009.61 1009.28 1009.00 1008.67 1008.28 1008.09 1008.00 1008.12 1008.32 1008.25 1008.31 1008.58 1008.72 1008.81 1008.84 1008.66 1008.69 1009.10 1009.26 1008.87 1009.99 1010.32 1011.20 1011.29 1011.46 1011.31 1011.44 1011.64 1011.81 1011.87
1017.33 1017.11 1016.89 1016.46 1016.06 1015.53 1015.08 1014.47 1013.89 1013.15 1012.23 1011.54 1010.96 1010.54 1010.07 1009.87 1009.77 1009.40 1009.42 1009.48 1009.23 1010.01 1010.22 1009.69 1010.06 1010.27 1010.14 1010.29 1010.29 1010.35 1010.55 1010.64 1010.08 1010.06 1011.13 1011.10 1011.56 1011.85 1011.82 1011.84 1012.10 1011.87 1012.19
1017.90 1017.58 1017.24 1016.97 1016.69 1016.32 1015.84 1015.17 1014.66 1013.89 1013.26 1012.48 1011.89 1011.52 1011.22 1010.94 1010.88 1010.80 1010.71 1010.70 1010.31 1011.12 1011.54 1011.70 1011.60 1011.65 1011.39 1011.43 1011.50 1011.32 1011.44 1011.26 1011.15 1011.11 1011.14 1011.67 1011.81 1012.03 1011.86 1011.92 1012.13 1012.27 1012.04
1017.97 1017.49 1017.38 1017.52 1017.37 1017.14 1016.68 1015.87 1015.37 1014.86 1014.26 1013.68 1013.30 1012.78 1012.35 1011.83 1011.58 1011.70 1011.73 1011.91 1012.06 1012.11 1011.75 1012.67 1012.36 1012.37 1012.50 1012.15 1012.10 1011.98 1012.10 1012.04 1011.99 1011.86 1011.72 1011.92 1012.11 1012.24 1012.33 1012.05 1011.80 1012.03 1011.73
1018.10 1017.80 1017.89 1018.01 1017.91 1017.77 1017.33 1016.82 1016.19 1015.59 1015.25 1014.85 1014.33 1013.78 1013.48 1012.99 1012.77 1012.75 1012.93 1013.17 1013.26 1013.32 1013.37 1013.48 1013.21 1012.68 1012.46 1012.77 1012.59 1012.61 1012.28 1012.35 1012.15 1012.06 1012.27 1012.19 1012.53 1012.46 1012.52 1012.87 1013.14 1012.70 1011.97
1018.71 1018.44 1018.59 1018.27 1018.30 1018.22 1017.86 1017.27 1016.77 1016.34 1015.89 1015.44 1015.06 1014.66 1014.52 1014.50 1014.25 1014.07 1014.10 1014.09 1014.02 1013.91 1013.95 1013.63 1013.51 1013.65 1013.27 1013.29 1013.32 1013.14 1012.90 1012.81 1012.90 1012.83 1012.97 1013.05 1012.93 1013.12 1013.18 1013.49 1013.24 1013.21 1012.13
1019.25 1018.98 1018.85 1018.81 1018.84 1018.76 1018.51 1017.96 1017.56 1017.19 1016.75 1016.28 1015.93 1015.55 1015.29 1015.29 1015.25 1015.09 1014.89 1014.67 1014.31 1014.08 1013.89 1013.74 1013.82 1014.04 1013.88 1013.61 1013.53 1013.69 1013.50 1013.65 1013.84 1013.49 1013.46 1013.60 1013.32 1013.36 1013.88 1013.72 1013.69 1013.65 1012.94
1019.76 1019.62 1019.49 1019.30 1019.31 1019.10 1018.87 1018.81 1018.35 1017.95 1017.57 1017.18 1016.76 1016.40 1016.05 1016.09 1016.07 1015.74 1015.29 1014.93 1014.85 1014.83 1014.76 1014.56 1014.31 1014.24 1014.48 1013.91 1013.80 1013.70 1013.86 1013.98 1013.87 1013.81 1013.93 1013.83 1013.82 1013.98 1014.05 1014.19 1014.02 1013.66 1012.99
1020.39 1020.34 1020.31 1020.11 1019.83 1019.91 1019.71 1019.29 1018.99 1018.59 1018.25 1017.89 1017.65 1017.49 1017.08 1016.85 1016.67 1016.25 1015.69 1015.41 1015.27 1015.17 1015.05 1014.94 1014.69 1014.49 1014.77 1014.65 1014.36 1014.40 1014.21 1014.11 1014.02 1014.02 1013.99 1014.11 1014.23 1014.24 1014.32 1014.19 1013.82 1013.39 1013.13
1021.23 1021.35 1021.19 1020.96 1020.73 1020.64 1020.49 1019.95 1019.66 1019.17 1019.02 1018.68 1018.33 1018.07 1017.83 1017.37 1017.17 1016.70 1016.02 1015.55 1015.30 1015.09 1015.09 1015.05 1015.36 1015.34 1015.32 1015.14 1014.88 1014.77 1014.36 1014.23 1014.05 1014.15 1014.24 1014.41 1014.26 1013.98 1014.22 1014.13 1013.75 1013.39 1012.97
1022.19 1021.99 1021.60 1021.39 1021.41 1021.32 1020.85 1020.48 1020.14 1019.90 1019.66 1019.25 1018.80 1018.41 1018.09 1017.96 1017.54 1017.24 1016.68 1015.92 1015.58 1015.46 1015.51 1015.61 1015.68 1015.75 1015.52 1015.36 1015.18 1014.89 1014.73 1014.54 1014.41 1014.32 1014.29 1014.38 1014.33 1013.98 1013.89 1013.91 1013.77 1013.65 1013.40
1022.67 1022.24 1022.18 1022.10 1021.84 1021.66 1021.30 1021.14 1020.84 1020.40 1019.99 1019.64 1019.23 1018.83 1018.54 1018.24 1018.14 1017.86 1017.52 1017.22 1016.86 1016.46 1016.44 1016.34 1016.23 1016.08 1015.87 1015.65 1015.33 1015.19 1014.96 1014.77 1014.61 1014.47 1014.56 1014.55 1014.55 1014.49 1014.51 1014.42 1014.29 1014.20 1014.16
1023.06 1022.87 1022.75 1022.62 1022.41 1022.09 1021.91 1021.59 1021.33 1021.02 1020.64 1020.28 1019.88 1019.50 1019.16 1018.93 1018.66 1018.35 1018.05 1017.69 1017.37 1017.02 1017.03 1016.92 1016.65 1016.34 1016.00 1015.75 1015.66 1015.42 1015.14 1015.04 1014.97 1014.95 1014.97 1014.99 1014.94 1014.85 1014.71 1014.60 1014.54 1014.45 1014.23
1023.62 1023.53 1023.15 1022.93 1022.57 1022.40 1022.04 1021.99 1022.02 1021.88 1021.48 1021.06 1020.58 1020.16 1019.71 1019.36 1019.15 1018.84 1018.49 1018.13 1017.81 1017.51 1017.28 1017.02 1016.83 1016.65 1016.43 1016.25 1015.93 1015.73 1015.60 1015.44 1015.42 1015.39 1015.33 1015.27 1015.22 1015.06 1014.88 1014.76 1014.64 1014.50 1014.31
1023.88 1023.91 1023.56 1023.11 1022.92 1022.57 1022.55 1022.65 1022.69 1022.73 1022.61 1022.10 1021.47 1020.97 1020.51 1020.07 1019.90 1019.54 1019.08 1018.72 1018.42 1018.09 1017.41 1017.02 1016.97 1016.92 1016.78 1016.59 1016.35 1015.97 1015.72 1015.76 1015.69 1015.62 1015.60 1015.56 1015.48 1015.29 1015.11 1014.99 1014.82 1014.67 1014.60
1024.03 1024.11 1023.96 1023.51 1023.30 1023.16 1022.66 1022.57 1022.98 1022.83 1022.68 1022.47 1022.16 1021.58 1021.02 1020.76 1020.28 1019.89 1019.54 1019.17 1018.80 1018.38 1017.97 1017.73 1017.60 1017.32 1017.15 1016.94 1016.65 1016.47 1016.39 1016.05 1015.97 1015.92 1015.82 1015.69 1015.58 1015.42 1015.28 1015.18 1015.10 1015.05 1015.03
1024.10 1024.19 1023.86 1023.74 1023.50 1023.41 1022.93 1022.86 1022.87 1022.44 1022.37 1022.42 1022.22 1022.08 1021.69 1021.24 1020.69 1020.38 1019.99 1019.58 1019.19 1018.78 1018.55 1018.18 1017.90 1017.72 1017.55 1017.38 1017.19 1016.94 1016.63 1016.55 1016.34 1016.00 1016.00 1015.89 1015.75 1015.62 1015.47 1015.47 1015.47 1015.44 1015.44
1024.18 1024.33 1023.92 1023.86 1023.79 1023.44 1023.26 1023.15 1022.87 1022.87 1022.75 1022.72 1022.40 1022.44 1022.08 1021.73 1021.23 1020.75 1020.20 1019.53 1019.24 1019.13 1018.89 1018.63 1018.35 1018.08 1017.81 1017.65 1017.38 1017.10 1016.88 1016.60 1016.55 1016.34 1016.14 1015.96 1015.92 1015.86 1015.81 1015.80 1015.78 1015.75 1015.78
1024.17 1024.22 1024.44 1024.44 1024.35 1024.02 1023.61 1023.40 1023.29 1023.30 1023.37 1023.13 1022.52 1022.43 1022.38 1022.00 1021.55 1021.12 1020.62 1019.96 1019.75 1019.53 1019.26 1018.94 1018.88 1018.78 1018.37 1017.85 1017.69 1017.40 1017.05 1016.81 1016.66 1016.42 1016.34 1016.16 1016.00 1015.98 1015.93 1015.98 1016.12 1016.20 1016.20
1024.86 1025.07 1024.96 1024.83 1024.68 1024.49 1024.06 1023.91 1024.03 1023.97 1023.75 1023.41 1023.32 1023.36 1022.89 1021.99 1021.70 1021.46 1021.31 1021.11 1020.71 1020.22 1019.87 1019.62 1019.45 1018.89 1018.71 1018.58 1018.18 1017.63 1017.39 1016.91 1016.66 1016.58 1016.37 1016.39 1016.33 1015.95 1015.90 1015.96 1016.09 1016.35 1016.50
1024.89 1025.04 1025.34 1025.25 1025.20 1025.08 1024.93 1024.76 1024.61 1024.41 1024.22 1023.84 1023.64 1023.89 1023.54 1022.80 1022.40 1022.28 1022.16 1021.71 1021.50 1021.09 1020.65 1020.15 1019.65 1019.25 1018.79 1018.60 1018.44 1018.25 1017.70 1017.40 1017.10 1016.39 1016.23 1016.32 1016.22 1016.09 1015.75 1015.65 1015.84 1016.17 1016.58
1025.14 1025.26 1025.52 1025.59 1025.67 1025.53 1025.41 1025.24 1025.09 1024.86 1024.60 1024.28 1023.93 1024.06 1023.80 1023.34 1023.25 1023.04 1022.81 1022.31 1021.85 1021.63 1021.16 1020.65 1020.11 1019.69 1019.48 1019.20 1018.82 1018.79 1018.38 1017.90 1017.39 1017.05 1016.14 1015.81 1015.87 1015.89 1015.62 1015.55 1015.74 1015.93 1016.08
1025.46 1025.54 1025.89 1025.99 1025.96 1025.89 1025.72 1025.62 1025.53 1025.34 1025.11 1024.99 1024.68 1024.60 1024.40 1024.19 1023.94 1023.73 1023.32 1022.87 1022.39 1021.57 1021.22 1020.94 1020.68 1020.20 1019.82 1019.45 1019.03 1019.12 1018.93 1018.45 1018.02 1017.37 1016.72 1016.14 1015.77 1016.02 1015.93 1015.65 1015.47 1015.55 1015.76
1025.85 1026.10 1026.26 1026.37 1026.35 1026.19 1026.07 1025.94 1025.93 1025.91 1025.74 1025.54 1025.50 1025.32 1025.09 1024.90 1024.56 1024.21 1023.75 1023.36 1022.54 1022.19 1021.67 1021.34 1021.07 1020.78 1020.38 1019.86 1019.42 1019.34 1019.00 1018.84 1018.30 1017.38 1016.66 1016.30 1015.85 1016.06 1016.00 1015.58 1015.45 1015.56 1015.68
1026.42 1026.38 1026.52 1026.54 1026.67 1026.68 1026.57 1026.43 1026.38 1026.27 1026.19 1025.90 1025.67 1025.39 1025.21 1024.88 1024.79 1024.51 1023.77 1023.18 1022.81 1022.43 1022.07 1021.80 1021.47 1021.05 1020.64 1020.29 1019.94 1019.79 1019.43 1018.84 1018.19 1017.76 1016.73 1015.99 1015.69 1016.01 1015.89 1015.49 1015.48 1015.57 1015.72
1026.90 1026.89 1026.92 1026.92 1026.96 1026.93 1026.93 1026.86 1026.88 1026.76 1026.62 1026.55 1026.41 1026.20 1025.97 1025.65 1025.30 1024.74 1024.25 1023.68 1023.26 1022.82 1022.52 1022.19 1022.14 1021.64 1020.95 1020.54 1020.57 1020.17 1019.54 1018.87 1018.16 1017.54 1016.82 1016.09 1016.03 1016.05 1015.89 1015.60 1015.62 1015.59 1015.72
Thickness
5562 5558 5557 5553 5553 5552 5548 5546 5547 5551 5554 5556 5557 5557 5557 5558 5559 5561 5562 5562 5564 5563 5565 5566 5565 5565 5566 5568 5570 5571 5570 5571 5576 5565 5562 5553 5551 5547 5548 5545 5540 5537 5533
5550 5547 5542 5540 5537 5535 5532 5532 5532 5535 5538 5539 5539 5538 5541 5541 5539 5540 5539 5538 5540 5535 5537 5542 5542 5542 5543 5544 5547 5547 5548 5548 5556 5556 5544 5545 5539 5533 5531 5529 5525 5524 5517
5541 5537 5534 5530 5526 5522 5520 5521 5519 5521 5522 5524 5524 5523 5523 5524 5521 5519 5518 5516 5521 5514 5510 5511 5518 5520 5523 5525 5526 5529 5529 5533 5534 5535 5535 5528 5527 5522 5521 5517 5511 5505 5501
5535 5532 5527 5518 5514 5510 5508 5510 5509 5508 5508 5508 5506 5507 5508 5509 5509 5505 5500 5496 5496 5497 5502 5499 5501 5502 5502 5508 5511 5514 5514 5516 5516 5518 5520 5516 5512 5508 5503 5503 5501 5494 5490
5528 5524 5516 5509 5505 5501 5499 5498 5498 5498 5496 5494 5493 5494 5491 5489 5490 5488 5484 5479 5477 5477 5478 5480 5485 5492 5494 5494 5498 5499 5503 5504 5506 5508 5505 5504 5496 5493 5490 5483 5474 5474 5476
5518 5515 5507 5504 5499 5494 5491 5491 5489 5488 5486 5484 5482 5481 5477 5471 5470 5470 5468 5466 5466 5468 5469 5476 5477 5476 5481 5483 5485 5487 5490 5491 5490 5492 5487 5484 5483 5478 5474 5466 5464 5457 5464
5511 5507 5503 5498 5492 5487 5483 5481 5478 5476 5474 5473 5471 5470 5468 5463 5458 5457 5457 5458 5459 5464 5469 5472 5472 5469 5471 5476 5476 5474 5476 5475 5473 5477 5473 5469 5471 5467 5458 5456 5452 5446 5450
5506 5501 5495 5491 5485 5480 5476 5469 5467 5464 5462 5461 5460 5459 5458 5455 5451 5449 5452 5454 5455 5456 5457 5459 5463 5464 5461 5467 5468 5471 5468 5465 5465 5464 5462 5462 5459 5456 5452 5447 5444 5443 5446
5501 5494 5487 5482 5478 5469 5463 5461 5458 5456 5454 5452 5450 5447 5447 5446 5445 5446 5450 5451 5451 5452 5454 5455 5459 5461 5457 5458 5461 5456 5458 5458 5458 5458 5457 5454 5452 5450 5448 5446 5445 5444 5442
5493 5484 5477 5472 5467 5461 5456 5455 5452 5451 5447 5446 5445 5443 5442 5443 5442 5443 5448 5451 5452 5454 5454 5454 5450 5451 5450 5451 5452 5452 5457 5457 5458 5456 5454 5451 5450 5451 5448 5445 5445 5446 5449
5484 5478 5475 5470 5463 5458 5456 5453 5450 5446 5443 5442 5442 5442 5442 5440 5442 5441 5444 5451 5452 5453 5452 5450 5449 5447 5448 5449 5450 5453 5454 5453 5453 5453 5453 5451 5449 5451 5450 5447 5447 5447 5449
5482 5479 5473 5467 5463 5458 5454 5449 5446 5445 5443 5442 5442 5441 5441 5442 5441 5441 5441 5443 5445 5448 5446 5446 5446 5445 5447 5448 5451 5450 5450 5451 5452 5453 5450 5449 5448 5447 5447 5446 5446 5446 5446
5483 5478 5472 5467 5461 5457 5452 5449 5446 5444 5443 5441 5441 5441 5443 5443 5443 5444 5444 5444 5445 5446 5444 5443 5444 5447 5449 5451 5450 5451 5452 5451 5450 5449 5449 5448 5447 5448 5448 5449 5449 5449 5451
5482 5476 5473 5468 5464 5459 5456 5451 5445 5442 5443 5443 5445 5446 5447 5447 5446 5446 5446 5446 5446 5447 5447 5448 5448 5449 5450 5451 5453 5453 5451 5451 5450 5449 5449 5449 5449 5450 5452 5453 5454 5455 5457
5485 5477 5474 5471 5466 5463 5457 5452 5447 5443 5441 5444 5447 5447 5448 5450 5447 5445 5446 5447 5447 5447 5452 5454 5454 5453 5453 5453 5454 5456 5456 5454 5453 5453 5452 5452 5451 5453 5456 5457 5459 5460 5460
5489 5480 5476 5473 5468 5463 5463 5460 5451 5450 5449 5448 5449 5450 5453 5450 5450 5450 5449 5449 5449 5450 5453 5453 5453 5456 5456 5457 5458 5457 5456 5457 5457 5456 5456 5457 5458 5459 5460 5461 5462 5462 5462
5494 5486 5483 5477 5473 5467 5467 5463 5459 5461 5457 5455 5454 5454 5453 5453 5454 5453 5453 5453 5454 5455 5455 5456 5457 5457 5457 5457 5458 5459 5459 5458 5459 5461 5460 5460 5462 5463 5464 5464 5464 5464 5463
5501 5492 5490 5484 5477 5474 5470 5467 5467 5464 5461 5460 5460 5458 5458 5457 5457 5457 5459 5461 5461 5460 5460 5460 5461 5462 5461 5460 5461 5462 5463 5465 5463 5464 5465 5466 5466 5466 5466 5465 5466 5466 5465
5506 5500 5492 5486 5480 5476 5474 5471 5469 5467 5462 5464 5468 5465 5463 5461 5462 5461 5462 5466 5465 5464 5464 5464 5462 5460 5462 5465 5464 5466 5467 5468 5467 5469 5468 5469 5470 5469 5470 5468 5466 5463 5464
5505 5496 5492 5488 5484 5480 5478 5474 5468 5467 5466 5468 5466 5462 5464 5468 5467 5466 5464 5462 5462 5464 5464 5463 5462 5465 5464 5463 5465 5469 5469 5472 5472 5471 5472 5470 5470 5474 5473 5472 5471 5468 5466
5510 5504 5493 5491 5485 5481 5477 5473 5470 5469 5468 5470 5468 5462 5459 5467 5468 5465 5462 5463 5462 5462 5463 5464 5466 5466 5468 5467 5467 5467 5470 5471 5472 5477 5477 5475 5475 5475 5478 5478 5476 5473 5467
5512 5507 5499 5493 5487 5482 5478 5475 5472 5470 5469 5469 5470 5466 5463 5467 5464 5463 5461 5462 5463 5462 5463 5464 5466 5467 5466 5466 5467 5466 5468 5470 5473 5474 5481 5483 5481 5480 5482 5481 5479 5477 5476
5513 5508 5500 5495 5490 5484 5481 5477 5473 5471 5469 5465 5465 5463 5463 5463 5462 5461 5462 5462 5463 5466 5466 5466 5466 5467 5468 5468 5469 5467 5468 5470 5471 5474 5478 5482 5484 5481 5481 5483 5484 5483 5481
5513 5506 5501 5496 5492 5488 5485 5480 5475 5469 5467 5464 5459 5458 5458 5458 5459 5460 5462 5462 5465 5465 5467 5466 5466 5466 5467 5469 5470 5470 5471 5471 5474 5477 5480 5482 5484 5481 5480 5483 5484 5483 5483
5510 5506 5501 5498 5492 5488 5485 5481 5477 5473 5468 5465 5460 5458 5458 5461 5460 5460 5462 5464 5465 5466 5467 5466 5467 5468 5468 5469 5470 5471 5473 5477 5478 5480 5482 5484 5486 5482 5483 5485 5485 5484 5482
5505 5503 5500 5496 5493 5489 5485 5482 5477 5474 5470 5464 5459 5455 5454 5458 5459 5461 5461 5463 5464 5465 5466 5466 5465 5466 5469 5470 5469 5472 5475 5479 5481 5484 5484 5484 5483 5482 5483 5485 5484 5483 5482